EHI
0 0 0 0 0 0 0 0 0 0 0 0 0 0 0 0 0 0 0 0 0 0 0 0 0 0 0 0 0 0 0 0 0 0 0 0 0 0 0 0 0 0 0
0 0 0 0 0 0 0 0 0 0 0 0 0 0 0 0 0 0 0 0 0 0 0 0 0 0 0 0 0 0 0 0 0 0 0 0 0 0 0 0 0 0 0
0 0 0 0 0 0 0 0 0 0 0 0 0 0 0 0 0 0 0 0 0 0 0 0 0 0 0 0 0 0 0 0 0 0 0 0 0 0 0 0 0 0 0
0 0 0 0 0 0 0 0 0 0 0 0 0 0 0 0 0 0 0 0 0 0 0 0 0 0 0 0 0 0 0 0 0 0 0 0 0 0 0 0 0 0 0
0 0 0 0 0 0 0 0 0 0 0 0 0 0 0 0 0 0 0 0 0 0 0 0 0 0 0 0 0 0 0 0 0 0 0 0 0 0 0 0 0 0 0
0 0 0 0 0 0 0 0 0 0 0 0 0 0 0 0 0 0 0 0 0 0 0 0 0 0 0 1 0 0 0 0 0 0 0 0 0 0 0 0 0 0 0
0 0 0 0 0 0 0 0 0 0 0 0 0 0 0 0 0 0 0 0 0 0 0 0 0 0 0 0 0 0 0 0 0 0 0 0 0 0 0 0 0 0 0
0 0 0 0 0 0 0 0 0 0 0 0 0 0 0 0 0 0 0 0 0 0 0 0 0 0 0 0 0 0 0 1 0 0 0 0 0 0 0 0 0 0 0
0 0 0 0 0 0 0 0 0 0 0 0 0 0 0 0 0 0 0 0 0 0 0 0 0 0 0 0 0 0 0 0 0 0 0 0 0 0 0 0 0 0 0
0 0 0 0 0 0 0 0 0 0 0 0 0 0 0 0 0 0 0 0 0 0 0 0 0 0 0 0 0 0 0 0 0 0 0 0 0 0 0 0 0 0 0
0 0 0 0 0 0 0 0 0 0 0 0 0 0 0 0 0 0 0 0 0 0 0 0 0 0 0 0 0 0 0 0 0 0 0 0 0 0 0 0 0 0 0
0 0 0 0 0 0 0 0 0 0 0 0 0 0 0 0 0 0 0 0 0 0 0 0 0 0 0 0 0 0 0 0 0 0 0 0 0 0 0 0 0 0 0
0 0 0 0 0 0 0 0 0 0 0 0 0 0 0 0 0 0 0 0 0 0 0 0 0 0 0 0 0 0 0 0 0 0 0 0 0 0 0 0 0 0 0
0 0 0 0 0 0 0 0 0 0 0 0 0 0 0 0 0 0 0 0 0 0 0 0 0 0 0 0 0 0 0 0 0 0 0 0 0 0 0 0 0 0 0
0 0 0 0 0 0 0 0 0 0 0 0 0 0 0 0 0 0 0 0 0 0 0 0 0 0 0 0 0 0 0 0 0 0 0 0 0 0 0 0 0 0 0
0 0 0 0 0 0 0 0 0 0 0 0 0 0 0 0 0 0 0 0 0 0 0 0 0 0 0 0 0 0 0 0 0 0 0 0 0 0 0 0 0 0 0
0 0 0 0 0 0 0 0 0 0 0 0 0 0 0 0 0 0 0 0 0 0 0 0 0 0 0 0 0 0 0 0 0 0 0 0 0 0 0 0 0 0 0
0 0 0 0 0 0 0 0 0 0 0 0 0 0 0 0 0 0 0 0 0 0 0 0 0 0 0 0 0 0 0 0 0 0 0 0 0 0 0 0 0 0 0
0 0 0 0 0 0 0 0 0 0 0 0 0 0 0 0 0 0 0 0 0 0 0 0 0 0 0 0 0 0 0 0 0 0 0 0 0 0 0 0 0 0 0
2 3 1 0 0 0 0 0 0 0 0 0 0 0 0 0 0 0 0 0 0 0 0 0 0 0 0 0 0 0 0 0 0 0 0 0 0 0 0 0 0 0 0
5 5 3 1 0 0 0 0 0 0 0 0 0 0 0 0 0 0 0 0 0 0 0 0 0 0 0 0 0 0 0 0 0 0 0 0 0 0 0 0 0 0 0
5 3 2 1 0 0 0 0 0 0 0 0 0 0 0 0 0 0 0 0 0 0 0 0 0 0 0 0 0 0 0 0 0 0 0 0 0 0 0 0 0 0 0
3 3 3 3 2 0 0 0 0 0 0 0 0 0 0 0 0 0 0 0 0 0 0 0 0 0 0 0 0 0 0 0 0 0 0 0 0 0 0 0 0 0 0
4 3 4 5 4 2 0 0 0 0 0 0 0 0 0 0 0 0 0 0 0 0 0 0 0 0 0 0 0 0 0 0 0 0 0 0 0 0 0 0 0 0 0
3 3 3 4 4 2 0 0 0 0 0 0 0 0 0 0 0 0 0 0 0 0 0 0 0 0 0 0 0 0 0 0 0 0 0 0 0 0 0 0 0 0 0
1 1 1 2 2 1 0 0 0 0 0 0 0 0 0 0 0 0 0 0 0 0 0 0 0 0 0 0 0 0 0 0 0 0 0 0 0 0 0 0 0 0 0
Wind_Speed
3 2 2 1 2 1 2 2 1 1 1 1 1 3 3 4 4 3 3 10 11 11 12 13 13 13 13 13 12 12 12 11 11 10 10 10 11 10 10 10 9 9 8
3 3 2 2 2 1 2 2 2 1 1 1 1 1 3 4 4 4 3 5 10 10 11 12 13 13 13 13 13 12 12 12 11 10 10 10 10 10 10 10 9 9 8
3 3 3 2 1 1 2 2 2 2 2 1 1 1 2 3 3 3 3 3 4 8 10 10 11 12 13 13 13 13 12 11 11 11 10 10 10 10 10 10 10 9 8
4 4 3 2 1 2 2 3 2 2 2 2 1 1 1 2 2 2 2 3 2 3 6 10 10 10 11 12 13 13 13 12 11 11 11 11 11 11 10 10 10 10 9
5 4 3 2 2 3 2 2 2 2 2 1 0 1 1 1 1 2 2 2 2 2 3 6 9 10 11 12 12 12 13 13 12 12 12 12 12 12 11 11 10 10 10
5 4 3 3 3 3 3 2 3 2 1 1 1 2 1 1 1 1 1 1 2 2 3 3 3 5 9 9 10 11 12 13 13 12 12 12 12 12 12 12 11 11 11
4 4 3 3 3 3 3 2 2 3 2 1 3 3 3 3 1 0 1 1 1 1 2 3 2 2 2 6 7 8 9 11 12 12 12 12 12 11 12 12 12 12 12
4 4 4 3 3 3 3 3 3 2 2 2 3 2 2 4 3 2 1 1 1 1 1 3 2 2 2 1 3 6 7 8 9 10 10 11 11 11 11 12 12 12 12
5 5 5 4 3 3 3 3 3 3 2 2 1 3 3 2 2 3 2 1 1 1 1 1 2 3 3 2 1 2 4 4 5 7 8 8 9 10 10 11 12 13 13
5 5 5 5 4 3 3 2 3 3 3 2 2 1 1 3 3 0 3 2 1 1 1 1 2 2 2 2 3 3 4 4 4 4 5 5 7 8 9 10 12 13 13
4 4 5 4 4 3 3 3 3 3 2 2 1 1 2 2 2 3 1 3 3 2 2 2 2 2 2 3 2 4 5 4 3 3 3 3 4 5 7 9 11 12 12
2 4 4 4 4 3 3 3 3 4 3 3 2 2 2 2 1 2 2 1 2 3 2 2 2 2 3 3 4 6 6 6 5 4 3 3 4 4 5 7 8 9 10
3 4 4 4 4 4 4 4 3 3 3 3 2 2 2 2 2 3 3 1 1 3 3 2 2 3 3 3 3 7 7 7 7 6 5 5 5 5 5 6 7 8 9
5 5 6 5 5 5 5 4 2 2 2 2 2 2 1 1 1 2 3 3 1 2 3 4 2 2 2 3 5 8 5 9 8 8 8 7 7 7 7 7 7 8 8
5 6 6 6 6 6 5 5 3 3 3 3 2 2 2 1 1 1 2 3 4 1 2 4 2 2 2 3 5 5 5 9 11 10 10 10 10 10 9 9 9 9 9
5 6 7 7 6 6 6 5 3 3 4 4 3 3 2 2 1 1 1 2 3 4 3 3 3 3 2 3 6 5 6 10 12 12 12 12 12 12 12 11 11 11 11
6 7 7 7 7 7 6 6 5 5 5 5 4 4 5 4 3 2 1 2 2 3 3 4 3 2 2 3 3 4 5 6 6 12 13 14 14 14 13 13 13 12 12
6 7 7 7 8 8 7 7 7 7 6 6 6 5 6 4 5 4 3 3 3 3 4 5 3 3 4 4 5 5 5 6 6 11 14 15 15 15 15 15 14 14 14
6 6 7 7 8 8 8 8 8 7 7 7 7 7 7 6 6 4 5 4 4 4 4 4 5 3 4 4 4 5 5 5 6 8 12 14 15 15 16 16 16 15 15
6 6 7 7 7 7 8 8 8 8 7 7 7 7 7 8 8 7 6 6 5 5 4 4 5 4 4 4 3 4 5 4 5 6 8 8 11 14 15 16 16 16 16
5 5 5 5 6 6 7 7 8 8 8 7 7 7 8 10 11 9 7 7 7 6 5 5 6 5 5 4 5 4 6 5 5 5 5 6 5 5 7 11 14 16 16
2 2 4 4 4 5 7 9 8 6 6 7 7 7 7 9 11 13 14 12 10 9 8 7 7 7 9 7 5 5 5 4 6 4 4 6 4 6 7 6 11 15 17
0 1 1 2 2 2 3 4 7 4 4 4 5 5 5 5 6 5 8 11 11 14 14 10 10 11 10 8 6 7 7 7 9 5 3 6 5 7 7 8 14 16 17
1 1 1 0 0 1 0 2 2 2 1 2 2 3 3 3 3 3 4 5 6 7 9 9 9 11 10 8 8 10 10 9 7 5 5 7 6 7 7 7 13 17 18
2 2 2 2 2 3 4 2 2 1 1 2 2 2 2 2 5 5 3 4 6 7 8 9 10 12 14 14 11 6 6 6 9 8 6 6 7 7 7 8 10 16 18
3 4 4 4 4 4 6 6 4 2 2 2 3 3 4 4 6 6 3 4 7 8 7 9 9 9 9 11 13 10 9 9 9 7 6 6 7 6 6 6 8 8 10
Wind_Direction
130 126 126 126 131 128 132 135 154 162 128 107 109 128 134 143 157 171 188 190 190 190 188 186 185 186 185 185 185 183 182 179 176 175 173 171 169 168 167 165 163 161 159
129 126 122 117 110 118 124 130 131 119 117 106 96 121 137 148 161 175 189 203 202 198 196 194 193 191 190 192 192 191 190 187 183 182 181 180 177 176 176 174 173 172 169
121 125 123 117 109 108 103 92 83 72 75 71 69 86 127 145 162 178 185 201 206 206 203 201 199 198 197 197 197 197 196 193 188 188 188 188 187 185 183 183 182 179 178
117 114 115 115 108 94 94 95 83 74 62 68 65 43 102 143 159 180 189 200 201 210 211 208 203 203 205 205 204 201 199 197 196 194 193 194 195 194 191 190 189 187 186
115 112 111 112 102 90 82 98 82 95 86 58 64 77 59 131 152 168 175 190 197 203 203 214 209 208 213 214 212 209 205 202 200 199 199 200 201 201 199 197 196 195 195
108 106 103 92 94 93 80 80 82 73 95 88 60 50 9 351 80 116 166 168 186 193 189 198 206 219 220 220 217 214 211 208 205 206 206 206 208 207 204 204 202 201 202
110 106 103 93 98 102 108 104 92 70 43 62 67 25 359 358 18 38 112 115 137 167 164 180 184 195 226 225 221 218 219 218 214 211 211 214 215 213 209 209 208 208 208
120 117 113 109 106 101 87 79 85 83 32 59 111 91 26 354 344 351 2 124 123 119 151 174 173 178 188 192 221 221 225 227 225 221 219 219 220 217 214 213 213 213 214
124 120 123 117 110 114 111 98 93 100 80 21 88 137 141 202 297 329 330 341 132 128 167 167 173 179 187 181 195 219 217 225 231 235 231 226 224 220 219 220 221 220 220
137 133 127 120 116 117 120 118 105 106 110 66 15 38 146 154 146 307 329 329 316 244 222 196 174 182 180 173 187 183 191 203 219 237 242 238 233 228 226 227 229 229 228
155 150 139 129 129 127 129 116 108 102 110 119 98 64 58 58 91 133 240 314 330 304 267 226 193 189 182 178 183 187 177 186 199 216 231 239 239 238 235 234 237 237 235
170 168 153 147 147 143 145 141 131 124 123 119 114 109 122 122 135 137 166 245 281 290 290 267 222 201 194 187 199 188 186 193 199 211 225 233 241 246 246 247 247 247 246
187 193 170 164 161 165 165 156 146 148 148 141 147 144 142 159 167 149 138 171 282 300 314 292 246 219 205 191 203 195 200 200 207 217 227 235 242 247 247 250 253 255 255
195 189 181 179 178 176 174 164 161 173 166 165 171 165 160 182 161 159 156 143 76 330 322 292 297 241 222 202 211 200 209 213 217 226 233 239 244 248 250 250 250 252 256
195 188 184 183 184 181 178 170 180 197 186 192 199 199 194 219 193 176 164 154 150 181 284 287 293 279 241 227 224 208 215 226 227 230 236 242 246 248 249 249 248 248 249
193 182 186 187 188 187 182 177 185 198 191 204 203 206 217 223 224 190 176 174 161 165 222 264 262 268 251 237 227 219 228 235 236 237 239 243 246 247 248 248 247 246 245
190 188 189 189 192 194 190 188 198 197 203 214 215 209 223 219 219 220 199 185 181 167 211 264 262 267 254 254 254 239 240 237 242 242 243 245 246 247 247 246 246 245 245
196 194 191 192 199 200 197 198 208 207 206 215 220 217 226 224 224 224 217 221 216 200 202 249 268 264 254 248 247 248 246 240 236 245 244 246 246 246 246 244 243 242 243
200 197 194 199 205 203 203 207 210 213 213 216 217 218 225 220 228 226 223 226 229 228 210 230 259 254 259 257 262 265 258 255 252 250 247 247 246 245 244 242 242 241 241
201 202 202 205 206 204 206 209 211 217 220 222 221 220 222 218 223 223 226 226 226 231 229 237 256 259 257 254 242 257 273 260 257 257 255 251 247 247 246 243 242 242 242
213 208 207 214 211 210 216 213 214 217 221 229 231 229 229 226 224 222 225 222 220 228 231 238 252 261 259 254 246 240 256 266 264 246 254 256 249 249 248 246 245 244 243
220 210 213 214 213 225 232 220 214 221 220 225 235 241 245 242 241 237 237 232 221 225 233 236 243 245 254 245 245 242 247 257 270 246 222 254 233 245 245 238 242 242 242
173 201 219 202 210 235 236 225 219 219 225 232 238 246 258 262 253 252 253 252 246 242 237 237 245 248 252 244 236 244 241 238 248 241 208 256 244 247 246 245 241 241 242
83 96 63 86 110 17 153 196 190 180 216 260 264 264 264 288 317 305 286 280 272 265 257 250 249 255 255 251 238 244 250 253 253 246 212 248 249 247 251 244 245 242 243
34 35 39 54 62 27 35 59 119 88 39 353 359 12 16 7 358 2 341 311 301 294 288 281 271 267 266 263 257 258 255 253 260 254 217 232 250 255 252 249 248 243 242
43 46 50 52 63 54 48 59 78 70 48 18 5 5 25 19 0 357 336 306 295 293 300 303 295 286 275 268 259 245 245 252 259 260 226 223 245 243 261 249 244 243 243